Seminole, OK

10:55 PM CST on November 13, 2019 (GMT -0600)
Seminole

Weather History for KSRE - October, 2019

Change the Weather History Date:

Monday, October 21, 2019

  Actual Average (KADH) Record (KADH)
Temperature  
Mean Temperature 58 °F -  
Max Temperature 69 °F 73 °F 94 °F (1939)
Min Temperature 46 °F 49 °F 30 °F (1916)
Degree Days  
Heating Degree Days 8    
Growing Degree Days 8 (Base 50)    
Moisture  
Dew Point 32 °F    
Average Humidity 43    
Maximum Humidity 82    
Minimum Humidity 16    
Precipitation  
Precipitation 0.00 in - - ()
Sea Level Pressure  
Sea Level Pressure 29.86 in    
Wind  
Wind Speed 7 mph ()    
Max Wind Speed 18 mph    
Max Gust Speed 28 mph    
Visibility 10.0 miles    
Events      
Averages and records for this station are not official NWS values.
T = Trace of Precipitation, MM = Missing Value Source: Averaged Metar Reports

Daily Weather History Graph

Daily Weather History Graph

Search for Another Location

Airport or City:

Astronomy

Oct. 21, 2019 Rise Set
Actual Time 7:37 AM CDT 6:44 PM CDT
Civil Twilight 7:12 AM CDT 7:10 PM CDT
Nautical Twilight 6:42 AM CDT 7:39 PM CDT
Astronomical Twilight 6:13 AM CDT 8:09 PM CDT
Moon 12:04 AM CDT (10/21) 2:49 PM CDT (10/21)
Length of Visible Light 11h 57m
Length of Day
11h 06m
Waning Gibbous, 48% of the Moon is Illuminated
Oct 21
Waning Gibbous
Oct 27
New
Nov 4
First Quarter
Nov 12
Full
Nov 19
Last Quarter

Hourly Weather History & Observations

Time (CDT) Temp. Windchill Dew Point Humidity Pressure Visibility Wind Dir Wind Speed Gust Speed Precip Events Conditions
12:15 AM 59.0 °F - 48.2 °F 67% 29.60 in 10.0 mi NNW 13.8 mph 24.2 mph N/A   Clear
12:55 AM 57.2 °F - 46.4 °F 67% 29.62 in 10.0 mi NNW 9.2 mph - N/A   Clear
1:15 AM 55.4 °F - 46.4 °F 72% 29.64 in 10.0 mi NNW 6.9 mph - N/A   Clear
1:35 AM 53.6 °F - 46.4 °F 77% 29.67 in 10.0 mi Calm Calm - N/A   Clear
1:55 AM 51.8 °F - 46.4 °F 82% 29.69 in 10.0 mi NW 4.6 mph - N/A   Clear
2:15 AM 51.8 °F - 46.4 °F 82% 29.70 in 10.0 mi NNW 4.6 mph - N/A   Clear
2:35 AM 51.8 °F - 44.6 °F 76% 29.72 in 10.0 mi NW 4.6 mph - N/A   Clear
2:55 AM 51.8 °F - 42.8 °F 71% 29.75 in 10.0 mi NNW 5.8 mph - N/A   Partly Cloudy
3:15 AM 50.0 °F - 42.8 °F 76% 29.75 in 10.0 mi NW 6.9 mph - N/A   Scattered Clouds
3:35 AM 51.8 °F - 39.2 °F 62% 29.76 in 10.0 mi NNW 6.9 mph 12.7 mph N/A   Mostly Cloudy
3:55 AM 50.0 °F - 39.2 °F 66% 29.77 in 10.0 mi NW 5.8 mph - N/A   Partly Cloudy
4:15 AM 50.0 °F - 39.2 °F 66% 29.76 in 10.0 mi NW 6.9 mph - N/A   Clear
4:35 AM 48.2 °F - 37.4 °F 66% 29.77 in 10.0 mi NNW 5.8 mph - N/A   Clear
4:55 AM 48.2 °F - 37.4 °F 66% 29.78 in 10.0 mi NW 4.6 mph - N/A   Clear
5:15 AM 48.2 °F - 35.6 °F 62% 29.78 in 10.0 mi NW 4.6 mph - N/A   Clear
5:55 AM 48.2 °F - 35.6 °F 62% 29.79 in 10.0 mi NW 5.8 mph - N/A   Clear
6:15 AM 48.2 °F - 33.8 °F 58% 29.80 in 10.0 mi NW 4.6 mph - N/A   Clear
6:35 AM 48.2 °F - 35.6 °F 62% 29.80 in 10.0 mi NW 5.8 mph - N/A   Clear
6:55 AM 46.4 °F 44.3 °F 33.8 °F 62% 29.82 in 10.0 mi NW 4.6 mph - N/A   Clear
7:15 AM 46.4 °F 44.3 °F 33.8 °F 62% 29.83 in 10.0 mi West 4.6 mph - N/A   Clear
7:35 AM 46.4 °F 44.3 °F 33.8 °F 62% 29.83 in 10.0 mi NW 4.6 mph - N/A   Clear
7:55 AM 46.4 °F 45.2 °F 33.8 °F 62% 29.85 in 10.0 mi WNW 3.5 mph - N/A   Clear
8:15 AM 46.4 °F 43.5 °F 35.6 °F 66% 29.85 in 10.0 mi WNW 5.8 mph - N/A   Clear
8:35 AM 48.2 °F - 35.6 °F 62% 29.86 in 10.0 mi West 6.9 mph - N/A   Clear
8:55 AM 50.0 °F - 35.6 °F 58% 29.87 in 10.0 mi West 5.8 mph - N/A   Clear
9:15 AM 53.6 °F - 35.6 °F 51% 29.88 in 10.0 mi West 8.1 mph - N/A   Clear
9:35 AM 55.4 °F - 35.6 °F 47% 29.89 in 10.0 mi West 8.1 mph - N/A   Clear
9:55 AM 57.2 °F - 35.6 °F 44% 29.89 in 10.0 mi WNW 8.1 mph 13.8 mph N/A   Clear
10:15 AM 57.2 °F - 33.8 °F 41% 29.88 in 10.0 mi WNW 8.1 mph 16.1 mph N/A   Clear
10:35 AM 59.0 °F - 32.0 °F 36% 29.89 in 10.0 mi WNW 10.4 mph 19.6 mph N/A   Clear
10:55 AM 59.0 °F - 33.8 °F 39% 29.89 in 10.0 mi NW 9.2 mph 17.3 mph N/A   Clear
11:15 AM 60.8 °F - 32.0 °F 34% 29.89 in 10.0 mi WNW 10.4 mph - N/A   Clear
11:35 AM 60.8 °F - 32.0 °F 34% 29.90 in 10.0 mi NW 11.5 mph 18.4 mph N/A   Clear
11:55 AM 62.6 °F - 32.0 °F 32% 29.90 in 10.0 mi WNW 11.5 mph 18.4 mph N/A   Clear
12:15 PM 62.6 °F - 32.0 °F 32% 29.90 in 10.0 mi West 9.2 mph 16.1 mph N/A   Clear
12:35 PM 64.4 °F - 32.0 °F 30% 29.90 in 10.0 mi WNW 9.2 mph - N/A   Clear
12:55 PM 64.4 °F - 30.2 °F 28% 29.90 in 10.0 mi WNW 11.5 mph 19.6 mph N/A   Clear
1:15 PM 66.2 °F - 30.2 °F 26% 29.89 in 10.0 mi Variable 6.9 mph 20.7 mph N/A   Clear
1:35 PM 66.2 °F - 28.4 °F 24% 29.89 in 10.0 mi West 10.4 mph 18.4 mph N/A   Clear
1:55 PM 66.2 °F - 26.6 °F 23% 29.89 in 10.0 mi WNW 18.4 mph - N/A   Clear
2:15 PM 68.0 °F - 26.6 °F 21% 29.88 in 10.0 mi WNW 11.5 mph 18.4 mph N/A   Clear
2:35 PM 68.0 °F - 24.8 °F 20% 29.87 in 10.0 mi West 13.8 mph - N/A   Clear
2:55 PM 68.0 °F - 23.0 °F 18% 29.87 in 10.0 mi WNW 11.5 mph 20.7 mph N/A   Clear
3:15 PM 68.0 °F - 23.0 °F 18% 29.87 in 10.0 mi West 18.4 mph 27.6 mph N/A   Clear
3:35 PM 69.8 °F - 23.0 °F 17% 29.87 in 10.0 mi WNW 17.3 mph 25.3 mph N/A   Clear
3:55 PM 69.8 °F - 23.0 °F 17% 29.87 in 10.0 mi West 13.8 mph 26.5 mph N/A   Clear
4:10 PM 68.0 °F - 23.0 °F 18% 29.87 in 10.0 mi NW 15.0 mph 21.9 mph N/A   Clear
4:35 PM 68.0 °F - 21.2 °F 17% 29.87 in 10.0 mi West 12.7 mph 23.0 mph N/A   Clear
4:55 PM 68.0 °F - 19.4 °F 16% 29.87 in 10.0 mi West 15.0 mph 23.0 mph N/A   Clear
5:15 PM 68.0 °F - 21.2 °F 17% 29.88 in 10.0 mi WNW 11.5 mph - N/A   Clear
5:35 PM 68.0 °F - 19.4 °F 16% 29.89 in 10.0 mi WNW 12.7 mph 21.9 mph N/A   Clear
5:55 PM 66.2 °F - 19.4 °F 17% 29.90 in 10.0 mi Variable 8.1 mph 13.8 mph N/A   Clear
6:15 PM 64.4 °F - 21.2 °F 19% 29.90 in 10.0 mi Variable 5.8 mph - N/A   Clear
6:35 PM 62.6 °F - 21.2 °F 20% 29.91 in 10.0 mi West 5.8 mph 11.5 mph N/A   Clear
6:55 PM 60.8 °F - 23.0 °F 23% 29.92 in 10.0 mi West 5.8 mph - N/A   Clear
7:15 PM 57.2 °F - 24.8 °F 29% 29.93 in 10.0 mi WSW 5.8 mph - N/A   Clear
7:55 PM 57.2 °F - 26.6 °F 31% 29.95 in 10.0 mi West 5.8 mph - N/A   Partly Cloudy
8:15 PM 55.4 °F - 26.6 °F 33% 29.96 in 10.0 mi WSW 6.9 mph - N/A   Scattered Clouds
8:35 PM 55.4 °F - 28.4 °F 36% 29.97 in 10.0 mi West 4.6 mph - N/A   Mostly Cloudy
8:55 PM 53.6 °F - 28.4 °F 38% 29.98 in 10.0 mi NW 4.6 mph - N/A   Mostly Cloudy
9:15 PM 53.6 °F - 28.4 °F 38% 29.99 in 10.0 mi West 3.5 mph - N/A   Mostly Cloudy
9:35 PM 53.6 °F - 28.4 °F 38% 30.00 in 10.0 mi West 3.5 mph - N/A   Partly Cloudy
9:55 PM 53.6 °F - 28.4 °F 38% 30.01 in 10.0 mi West 3.5 mph - N/A   Scattered Clouds
10:15 PM 51.8 °F - 28.4 °F 41% 30.02 in 10.0 mi West 4.6 mph - N/A   Partly Cloudy
10:55 PM 51.8 °F - 28.4 °F 41% 30.05 in 10.0 mi WNW 3.5 mph - N/A   Clear
11:15 PM 51.8 °F - 28.4 °F 41% 30.06 in 10.0 mi Calm Calm - N/A   Partly Cloudy
11:35 PM 51.8 °F - 28.4 °F 41% 30.07 in 10.0 mi NW 3.5 mph - N/A   Partly Cloudy
11:55 PM 51.8 °F - 28.4 °F 41% 30.08 in 10.0 mi WNW 3.5 mph - N/A   Partly Cloudy